StationID,Date,MaxTemp,MinTemp,Precipitation,Snowfall,SnowDepth
"CA00120C6PK","1995-05-25",72.14,43.52,20.00,,
"CA00120C6PK","1995-05-26",77.00,46.22,10.00,,
"CA00120C6PK","1995-05-27",63.50,52.16,0.00,,
"CA00120C6PK","1995-05-28",55.94,45.68,80.00,,
"CA00120C6PK","1995-05-29",54.86,44.60,30.00,,
"CA00120C6PK","1995-05-30",51.08,41.90,30.00,,
"CA00120C6PK","1995-05-31",54.32,44.60,60.00,,
"CA00120C6PK","1995-06-01",54.86,45.14,110.00,,
"CA00120C6PK","1995-06-02",57.56,45.14,100.00,,
"CA00120C6PK","1995-06-03",57.56,39.20,10.00,,
"CA00120C6PK","1995-06-05",61.88,44.06,10.00,,
"CA00120C6PK","1995-06-06",61.88,46.76,0.00,,
"CA00120C6PK","1995-06-07",73.22,41.36,10.00,,
"CA00120C6PK","1995-06-08",78.08,44.60,10.00,,
"CA00120C6PK","1995-06-09",79.70,50.54,10.00,,
"CA00120C6PK","1995-06-10",78.62,50.54,20.00,,
"CA00120C6PK","1995-06-11",58.10,48.92,60.00,,
"CA00120C6PK","1995-06-12",62.42,46.76,10.00,,
"CA00120C6PK","1995-06-13",63.50,48.38,0.00,,
"CA00120C6PK","1995-06-14",60.26,49.46,0.00,,
"CA00120C6PK","1995-06-15",59.72,50.54,0.00,,
"CA00120C6PK","1995-06-16",,,0.00,,
"CA00120C6PK","1995-06-17",67.82,41.90,90.00,,
"CA00120C6PK","1995-06-18",66.74,51.62,90.00,,
"CA00120C6PK","1995-06-19",71.06,45.14,10.00,,
"CA00120C6PK","1995-06-20",68.90,53.78,0.00,,
"CA00120C6PK","1995-06-21",69.98,46.76,0.00,,
"CA00120C6PK","1995-06-22",60.80,51.08,60.00,,
"CA00120C6PK","1995-06-23",55.40,47.84,20.00,,
"CA00120C6PK","1995-06-24",54.86,45.68,50.00,,
"CA00120C6PK","1995-06-25",60.80,42.98,20.00,,
"CA00120C6PK","1995-06-26",66.74,39.74,10.00,,
"CA00120C6PK","1995-06-27",74.84,42.44,10.00,,
"CA00120C6PK","1995-06-28",79.16,46.22,10.00,,
"CA00120C6PK","1995-06-29",78.62,49.46,10.00,,
"CA00120C6PK","1995-06-30",76.46,50.54,10.00,,
"CA00120C6PK","1995-07-01",59.72,53.78,50.00,,
"CA00120C6PK","1995-07-02",65.66,52.16,0.00,,
"CA00120C6PK","1995-07-03",69.44,51.62,10.00,,
"CA00120C6PK","1995-07-04",65.66,51.08,10.00,,
"CA00120C6PK","1995-07-07",74.30,46.76,10.00,,
"CA00120C6PK","1995-07-08",74.84,47.30,10.00,,
"CA00120C6PK","1995-07-09",73.22,48.92,20.00,,
"CA00120C6PK","1995-07-10",80.78,48.38,10.00,,
"CA00120C6PK","1995-07-11",67.28,57.02,10.00,,
"CA00120C6PK","1995-07-12",60.80,51.08,30.00,,
"CA00120C6PK","1995-07-13",58.10,51.08,50.00,,
"CA00120C6PK","1995-07-14",66.20,50.00,20.00,,
"CA00120C6PK","1995-07-15",64.04,49.46,10.00,,
"CA00120C6PK","1995-07-16",59.18,51.08,60.00,,
"CA00120C6PK","1995-07-17",71.06,50.54,40.00,,
"CA00120C6PK","1995-07-18",74.84,50.00,10.00,,
"CA00120C6PK","1995-07-19",74.30,53.24,10.00,,
"CA00120C6PK","1995-07-20",79.16,52.16,10.00,,
"CA00120C6PK","1995-07-22",66.74,56.48,20.00,,
"CA00120C6PK","1995-07-23",62.42,53.24,0.00,,
"CA00120C6PK","1995-07-24",55.94,50.54,80.00,,
"CA00120C6PK","1995-07-25",60.26,51.08,100.00,,
"CA00120C6PK","1995-07-26",,,20.00,,
"CA00120C6PK","1995-07-27",57.56,47.84,30.00,,
"CA00120C6PK","1995-07-28",65.12,48.38,20.00,,
"CA00120C6PK","1995-07-29",67.82,42.98,10.00,,
"CA00120C6PK","1995-07-30",58.10,51.08,100.00,,
"CA00120C6PK","1995-08-01",58.10,47.30,0.00,,
"CA00120C6PK","1995-08-02",58.10,50.00,20.00,,
"CA00120C6PK","1995-08-03",55.40,51.08,0.00,,
"CA00120C6PK","1995-08-04",54.86,48.92,60.00,,
"CA00120C6PK","1995-08-05",58.10,48.38,10.00,,
"CA00120C6PK","1995-08-06",67.28,45.68,10.00,,
"CA00120C6PK","1995-08-07",68.36,43.52,10.00,,
"CA00120C6PK","1995-08-08",64.04,48.38,80.00,,
"CA00120C6PK","1995-08-09",73.22,45.68,10.00,,
"CA00120C6PK","1995-08-10",61.34,50.54,20.00,,
"CA00120C6PK","1995-08-12",63.50,51.62,10.00,,
"CA00120C6PK","1995-08-13",55.40,51.62,140.00,,
"CA00120C6PK","1995-08-14",55.94,47.84,170.00,,
"CA00120C6PK","1995-08-15",59.18,47.30,10.00,,
"CA00120C6PK","1995-08-16",58.64,45.68,10.00,,
"CA00120C6PK","1995-08-17",59.72,47.30,0.00,,
"CA00120C6PK","1995-08-18",60.80,46.76,10.00,,
"CA00120C6PK","1995-08-19",64.58,48.38,0.00,,
"CA00120C6PK","1995-08-20",66.20,50.54,10.00,,
"CA00120C6PK","1995-08-21",64.04,45.68,60.00,,
"CA00120C6PK","1995-08-22",64.04,50.54,10.00,,
"CA00120C6PK","1995-08-23",66.74,49.46,0.00,,
"CA00120C6PK","1995-08-24",65.12,50.00,10.00,,
"CA00120C6PK","1995-08-25",63.50,47.84,0.00,,
"CA00120C6PK","1995-08-26",64.58,41.36,10.00,,
"CA00120C6PK","1995-08-27",65.66,40.82,10.00,,
"CA00120C6PK","1995-08-29",67.82,40.82,10.00,,
"CA00120C6PK","1995-08-30",62.96,48.38,0.00,,
"CA00120C6PK","1995-08-31",55.40,50.54,30.00,,
"CA00120C6PK","1995-09-01",57.02,51.08,20.00,,
"CA00120C6PK","1995-09-02",60.80,49.46,10.00,,
"CA00120C6PK","1995-09-03",61.88,41.36,10.00,,
"CA00120C6PK","1995-09-04",66.74,41.36,10.00,,
"CA00120C6PK","1995-09-05",66.20,41.90,10.00,,
"CA00120C6PK","1995-09-06",67.28,44.06,0.00,,
"CA00120C6PK","1995-09-07",68.36,47.30,0.00,,
"CA00120C6PK","1995-09-09",59.18,53.78,260.00,,
"CA00120C6PK","1995-09-10",58.64,52.70,430.00,,
"CA00120C6PK","1995-09-11",56.48,50.00,180.00,,
"CA00120C6PK","1995-09-12",,,30.00,,
"CA00120C6PK","1995-09-13",55.94,45.14,10.00,,
"CA00120C6PK","1995-09-14",62.96,48.92,50.00,,
"CA00120C6PK","1995-09-15",58.64,42.98,0.00,,
"CA00120C6PK","1995-09-16",57.02,41.90,0.00,,
"CA00120C6PK","1995-09-17",65.12,42.44,0.00,,
"CA00120C6PK","1995-09-18",59.72,47.30,0.00,,
"CA00120C6PK","1995-09-19",57.02,43.52,0.00,,
"CA00120C6PK","1995-09-20",57.56,40.28,10.00,,
"CA00120C6PK","1995-09-21",58.10,40.28,10.00,,
"CA00120C6PK","1995-09-22",59.18,41.90,10.00,,
"CA00120C6PK","1995-09-23",57.56,39.74,10.00,,
"CA00120C6PK","1995-09-24",57.56,38.12,10.00,,
"CA00120C6PK","1995-09-25",57.56,41.90,10.00,,
"CA00120C6PK","1995-09-26",54.32,45.14,20.00,,
"CA00120C6PK","1995-09-27",53.24,46.76,0.00,,
"CA00120C6PK","1995-09-28",57.02,46.76,0.00,,
"CA00120C6PK","1995-09-29",51.08,48.38,60.00,,
"CA00120C6PK","1995-09-30",51.62,44.06,50.00,,
"CA00120C6PK","1995-10-01",47.84,44.06,120.00,,
"CA00120C6PK","1995-10-02",51.62,44.60,60.00,,
"CA00120C6PK","1995-10-03",51.08,45.14,10.00,,
"CA00120C6PK","1995-10-04",50.54,45.68,60.00,,
"CA00120C6PK","1995-10-05",48.38,44.06,230.00,,
"CA00120C6PK","1995-10-06",51.08,42.44,30.00,,
"CA00120C6PK","1995-10-07",48.92,44.60,130.00,,
"CA00120C6PK","1995-10-08",47.30,44.06,110.00,,
"CA00120C6PK","1995-10-09",47.84,42.98,120.00,,
"CA00120C6PK","1995-10-10",46.76,42.98,50.00,,
"CA00120C6PK","1995-10-11",47.30,41.90,140.00,,
"CA00120C6PK","1995-10-12",45.68,38.66,130.00,,
"CA00120C6PK","1995-10-13",46.76,39.74,170.00,,
"CA00120C6PK","1995-10-14",47.84,34.34,20.00,,
"CA00120C6PK","1995-10-15",41.36,33.26,0.00,,
"CA00120C6PK","1995-10-16",42.44,32.72,10.00,,
"CA00120C6PK","1995-10-17",41.36,34.34,220.00,,
"CA00120C6PK","1995-10-18",43.52,40.28,240.00,,
"CA00120C6PK","1995-10-19",45.68,40.82,190.00,,
"CA00120C6PK","1995-10-20",45.68,39.74,160.00,,
"CA00120C6PK","1995-10-21",43.52,37.58,10.00,,
"CA00120C6PK","1995-10-22",43.52,37.58,120.00,,
"CA00120C6PK","1995-10-23",41.90,37.58,150.00,,
"CA00120C6PK","1995-10-24",44.06,38.66,70.00,,
"CA00120C6PK","1995-10-25",42.98,39.74,210.00,,
"CA00120C6PK","1995-10-26",41.36,36.50,180.00,,
"CA00120C6PK","1995-10-27",39.20,35.96,40.00,,
"CA00120C6PK","1995-10-28",38.66,31.64,10.00,,
"CA00120C6PK","1995-10-29",33.80,28.94,10.00,,
"CA00120C6PK","1995-10-30",31.64,26.78,10.00,,
"CA00120C6PK","1995-10-31",30.02,23.00,10.00,,
"CA00120C6PK","1995-11-01",28.94,20.84,0.00,,
"CA00120C6PK","1995-11-02",34.34,28.40,30.00,,
"CA00120C6PK","1995-11-03",38.66,33.80,300.00,,
"CA00120C6PK","1995-11-04",41.36,35.42,80.00,,
"CA00120C6PK","1995-11-05",37.58,32.18,60.00,,
"CA00120C6PK","1995-11-06",35.96,29.48,0.00,,
"CA00120C6PK","1995-11-07",34.88,28.94,0.00,,
"CA00120C6PK","1995-11-08",34.34,24.08,0.00,,
"CA00120C6PK","1995-11-09",21.38,14.36,0.00,,
"CA00120C6PK","1995-11-10",17.60,14.36,40.00,,
"CA00120C6PK","1995-11-11",24.08,18.14,40.00,,
"CA00120C6PK","1995-11-12",21.38,15.44,140.00,,
"CA00120C6PK","1995-11-13",32.18,19.76,70.00,,
"CA00120C6PK","1995-11-14",29.48,25.70,20.00,,
"CA00120C6PK","1995-11-15",33.26,28.94,120.00,,
"CA00120C6PK","1995-11-16",34.88,32.72,490.00,,
"CA00120C6PK","1995-11-17",38.66,33.26,70.00,,
"CA00120C6PK","1995-11-18",36.50,31.64,0.00,,
"CA00120C6PK","1995-11-19",32.72,31.10,160.00,,
"CA00120C6PK","1995-11-20",33.26,30.56,70.00,,
"CA00120C6PK","1995-11-21",33.80,30.56,180.00,,
"CA00120C6PK","1995-11-22",33.80,32.72,110.00,,
"CA00120C6PK","1995-11-23",34.88,31.64,80.00,,
"CA00120C6PK","1995-11-24",31.64,28.94,110.00,,
"CA00120C6PK","1995-11-25",28.94,22.46,40.00,,
"CA00120C6PK","1995-11-26",21.92,15.98,0.00,,
"CA00120C6PK","1995-11-28",15.44,12.20,0.00,,
"CA00120C6PK","1995-11-29",13.82,5.72,60.00,,
"CA00120C6PK","1995-11-30",14.90,12.74,20.00,,
"CA00120C6PK","1995-12-01",14.36,11.66,30.00,,
"CA00120C6PK","1995-12-02",11.66,7.88,30.00,,
"CA00120C6PK","1995-12-03",8.96,-0.76,20.00,,
"CA00120C6PK","1995-12-04",0.86,-11.56,80.00,,
"CA00120C6PK","1995-12-05",8.42,-5.62,60.00,,
"CA00120C6PK","1995-12-06",5.18,-20.20,50.00,,
"CA00120C6PK","1995-12-08",-26.68,-31.54,0.00,,
"CA00120C6PK","1995-12-09",-13.72,-29.92,40.00,,
"CA00120C6PK","1995-12-10",16.52,-11.56,60.00,,
"CA00120C6PK","1995-12-11",15.98,14.36,0.00,,
"CA00120C6PK","1995-12-12",14.36,1.40,0.00,,
"CA00120C6PK","1995-12-13",15.98,-1.30,20.00,,
"CA00120C6PK","1995-12-14",15.98,-6.16,20.00,,
"CA00120C6PK","1995-12-15",8.96,-11.02,30.00,,
"CA00120C6PK","1995-12-16",15.98,8.96,110.00,,
"CA00120C6PK","1995-12-17",22.46,15.98,420.00,,
"CA00120C6PK","1995-12-18",25.16,22.46,180.00,,
"CA00120C6PK","1995-12-19",32.72,25.16,120.00,,
"CA00120C6PK","1995-12-21",34.88,32.72,70.00,,
"CA00120C6PK","1995-12-22",34.34,32.72,10.00,,
"CA00120C6PK","1995-12-23",34.34,32.72,20.00,,
"CA00120C6PK","1995-12-24",39.20,33.26,180.00,,
"CA00120C6PK","1995-12-25",38.66,34.88,20.00,,
"CA00120C6PK","1995-12-26",40.28,35.42,180.00,,
"CA00120C6PK","1995-12-27",36.50,33.26,20.00,,
"CA00120C6PK","1995-12-28",34.34,31.64,60.00,,
"CA00120C6PK","1995-12-29",34.88,33.26,70.00,,
"CA00120C6PK","1995-12-30",34.88,33.26,30.00,,
"CA00120C6PK","1995-12-31",33.80,31.10,,,
"CA00120C6PK","1996-01-02",31.64,26.78,200.00,,
"CA00120C6PK","1996-01-03",25.70,10.04,0.00,,
"CA00120C6PK","1996-01-04",8.42,-1.84,10.00,,
"CA00120C6PK","1996-01-05",8.96,-4.54,0.00,,
"CA00120C6PK","1996-01-06",14.90,10.04,250.00,,
"CA00120C6PK","1996-01-07",33.26,14.90,80.00,,
"CA00120C6PK","1996-01-08",34.34,33.26,50.00,,
"CA00120C6PK","1996-01-10",33.80,32.18,80.00,,
"CA00120C6PK","1996-01-11",34.88,32.72,490.00,,
"CA00120C6PK","1996-01-12",33.26,7.88,160.00,,
"CA00120C6PK","1996-01-13",7.34,-6.70,10.00,,
"CA00120C6PK","1996-01-14",-6.70,-23.44,0.00,,
"CA00120C6PK","1996-01-15",-18.58,-26.68,0.00,,
"CA00120C6PK","1996-01-16",-15.34,-23.44,10.00,,
"CA00120C6PK","1996-01-17",-20.74,-27.22,10.00,,
"CA00120C6PK","1996-01-18",-25.60,-31.54,30.00,,
"CA00120C6PK","1996-01-19",-23.98,-34.78,40.00,,
"CA00120C6PK","1996-01-20",-25.60,-36.40,20.00,,
"CA00120C6PK","1996-01-21",-21.28,-31.00,40.00,,
"CA00120C6PK","1996-01-22",-0.22,-21.82,20.00,,
"CA00120C6PK","1996-01-23",-5.62,-16.42,20.00,,
"CA00120C6PK","1996-01-24",1.94,-19.66,10.00,,
"CA00120C6PK","1996-01-25",-11.02,-21.82,10.00,,
"CA00120C6PK","1996-01-26",-15.88,-28.30,20.00,,
"CA00120C6PK","1996-01-27",-2.92,-29.38,10.00,,
"CA00120C6PK","1996-01-28",-4.54,-25.60,20.00,,
"CA00120C6PK","1996-01-29",-18.04,-31.00,0.00,,
"CA00120C6PK","1996-01-30",-10.48,-24.52,0.00,,
"CA00120C6PK","1996-01-31",-6.16,-19.66,0.00,,
"CA00120C6PK","1996-02-01",0.86,-15.88,0.00,,
"CA00120C6PK","1996-02-02",15.44,-9.94,10.00,,
"CA00120C6PK","1996-02-03",21.92,14.90,30.00,,
"CA00120C6PK","1996-02-04",35.42,14.36,210.00,,
"CA00120C6PK","1996-02-05",35.42,32.18,280.00,,
"CA00120C6PK","1996-02-06",37.04,33.26,10.00,,
"CA00120C6PK","1996-02-07",38.12,32.72,140.00,,
"CA00120C6PK","1996-02-08",39.20,26.24,150.00,,
"CA00120C6PK","1996-02-09",,,10.00,,
"CA00120C6PK","1996-02-10",36.50,32.72,130.00,,
"CA00120C6PK","1996-02-11",37.04,33.80,120.00,,
"CA00120C6PK","1996-02-12",37.58,33.26,420.00,,
"CA00120C6PK","1996-02-13",36.50,32.72,110.00,,
"CA00120C6PK","1996-02-14",36.50,32.72,10.00,,
"CA00120C6PK","1996-02-15",37.04,33.26,30.00,,
"CA00120C6PK","1996-02-16",37.04,33.26,0.00,,
"CA00120C6PK","1996-02-17",34.88,33.26,10.00,,
"CA00120C6PK","1996-02-18",37.04,27.32,10.00,,
"CA00120C6PK","1996-02-20",32.72,25.16,50.00,,
"CA00120C6PK","1996-02-21",24.08,11.12,0.00,,
"CA00120C6PK","1996-02-22",19.22,13.28,60.00,,
"CA00120C6PK","1996-02-23",24.62,17.06,70.00,,
"CA00120C6PK","1996-02-24",21.92,13.28,10.00,,
"CA00120C6PK","1996-02-25",,,10.00,,
"CA00120C6PK","1996-02-26",19.22,5.18,10.00,,
"CA00120C6PK","1996-02-27",27.86,3.02,10.00,,
"CA00120C6PK","1996-03-01",28.94,7.88,20.00,,
"CA00120C6PK","1996-03-02",32.72,11.12,20.00,,
"CA00120C6PK","1996-03-03",41.36,22.46,0.00,,
"CA00120C6PK","1996-03-04",27.86,11.66,10.00,,
"CA00120C6PK","1996-03-05",35.42,12.74,10.00,,
"CA00120C6PK","1996-03-06",30.56,19.76,10.00,,
"CA00120C6PK","1996-03-07",25.16,9.50,0.00,,
"CA00120C6PK","1996-03-08",19.76,11.12,110.00,,
"CA00120C6PK","1996-03-10",41.90,32.72,150.00,,
"CA00120C6PK","1996-03-11",41.90,34.34,140.00,,
"CA00120C6PK","1996-03-12",39.74,32.18,50.00,,
"CA00120C6PK","1996-03-13",39.20,32.72,260.00,,
"CA00120C6PK","1996-03-14",36.50,33.26,510.00,,
"CA00120C6PK","1996-03-16",40.82,34.34,100.00,,
"CA00120C6PK","1996-03-17",40.28,31.64,30.00,,
"CA00120C6PK","1996-03-18",39.20,31.10,20.00,,
"CA00120C6PK","1996-03-19",37.04,32.72,50.00,,
"CA00120C6PK","1996-03-20",38.12,30.02,40.00,,
"CA00120C6PK","1996-03-21",31.10,24.62,0.00,,
"CA00120C6PK","1996-03-22",32.18,15.44,0.00,,
"CA00120C6PK","1996-03-23",38.66,19.22,10.00,,
"CA00120C6PK","1996-03-24",39.74,19.76,10.00,,
"CA00120C6PK","1996-03-25",42.98,29.48,20.00,,
"CA00120C6PK","1996-03-27",43.52,22.46,10.00,,
"CA00120C6PK","1996-03-28",43.52,23.54,30.00,,
"CA00120C6PK","1996-03-29",39.74,20.30,20.00,,
"CA00120C6PK","1996-03-30",37.04,21.92,10.00,,
"CA00120C6PK","1996-03-31",32.18,25.70,30.00,,
"CA00120C6PK","1996-04-01",30.02,22.46,0.00,,
"CA00120C6PK","1996-04-02",32.72,21.38,10.00,,
"CA00120C6PK","1996-04-03",38.12,18.14,20.00,,
"CA00120C6PK","1996-04-04",40.82,31.10,330.00,,
"CA00120C6PK","1996-04-05",40.82,35.42,190.00,,
"CA00120C6PK","1996-04-06",40.82,34.34,140.00,,
"CA00120C6PK","1996-04-07",45.14,31.64,0.00,,
"CA00120C6PK","1996-04-08",45.68,28.40,30.00,,
"CA00120C6PK","1996-04-09",47.84,24.08,10.00,,
"CA00120C6PK","1996-04-10",47.84,32.72,10.00,,
"CA00120C6PK","1996-04-11",49.46,34.34,10.00,,
"CA00120C6PK","1996-04-12",47.30,26.78,20.00,,
"CA00120C6PK","1996-04-13",50.00,30.02,20.00,,
"CA00120C6PK","1996-04-14",48.92,34.88,10.00,,
"CA00120C6PK","1996-04-15",44.06,35.96,30.00,,
"CA00120C6PK","1996-04-16",52.70,34.88,30.00,,
"CA00120C6PK","1996-04-17",46.22,34.34,30.00,,
"CA00120C6PK","1996-04-18",49.46,30.02,30.00,,
"CA00120C6PK","1996-04-19",51.08,34.88,10.00,,
"CA00120C6PK","1996-04-20",51.08,28.94,30.00,,
"CA00120C6PK","1996-04-21",53.78,33.26,10.00,,
"CA00120C6PK","1996-05-10",59.18,28.94,10.00,,
"CA00120C6PK","1996-05-11",62.42,31.10,20.00,,
"CA00120C6PK","1996-05-12",55.94,32.18,10.00,,
"CA00120C6PK","1996-05-13",55.94,38.12,10.00,,
"CA00120C6PK","1996-05-14",58.10,41.36,50.00,,
"CA00120C6PK","1996-05-15",54.32,40.82,20.00,,
"CA00120C6PK","1996-05-16",51.08,38.12,30.00,,
"CA00120C6PK","1996-05-17",61.88,37.58,20.00,,
"CA00120C6PK","1996-05-18",65.12,34.34,10.00,,
"CA00120C6PK","1996-05-19",60.26,39.74,10.00,,
"CA00120C6PK","1996-05-20",61.34,43.52,10.00,,
"CA00120C6PK","1996-05-21",51.08,41.90,60.00,,
"CA00120C6PK","1996-05-22",62.42,36.50,10.00,,
"CA00120C6PK","1996-05-23",64.58,38.66,10.00,,
"CA00120C6PK","1996-05-24",51.62,43.52,90.00,,
"CA00120C6PK","1996-05-25",54.32,42.44,140.00,,
"CA00120C6PK","1996-05-26",51.08,41.90,40.00,,
"CA00120C6PK","1996-05-27",58.64,42.44,10.00,,
"CA00120C6PK","1996-05-28",62.42,35.96,10.00,,
"CA00120C6PK","1996-05-29",67.82,39.74,10.00,,
"CA00120C6PK","1996-05-30",69.44,41.36,0.00,,
"CA00120C6PK","1996-05-31",68.90,42.44,0.00,,
"CA00120C6PK","1996-06-01",63.50,48.92,10.00,,
"CA00120C6PK","1996-06-02",67.28,46.22,0.00,,
"CA00120C6PK","1996-06-03",70.52,42.44,0.00,,
"CA00120C6PK","1996-06-04",55.40,49.46,140.00,,
"CA00120C6PK","1996-06-05",59.72,46.22,40.00,,
"CA00120C6PK","1996-06-06",54.86,47.30,50.00,,
"CA00120C6PK","1996-06-07",56.48,44.60,10.00,,
"CA00120C6PK","1996-06-08",56.48,45.68,40.00,,
"CA00120C6PK","1996-06-09",55.40,45.14,20.00,,
"CA00120C6PK","1996-06-10",53.78,45.68,90.00,,
"CA00120C6PK","1996-06-11",53.24,45.14,40.00,,
"CA00120C6PK","1996-06-12",51.08,44.06,40.00,,
"CA00120C6PK","1996-06-14",58.10,39.20,0.00,,
"CA00120C6PK","1996-06-15",57.02,45.68,80.00,,
"CA00120C6PK","1996-06-17",62.42,42.44,,,
"CA00120C6PK","1996-06-18",58.64,47.30,0.00,,
"CA00120C6PK","1996-06-19",58.64,49.46,0.00,,
"CA00120C6PK","1996-06-20",69.98,49.46,0.00,,
"CA00120C6PK","1996-06-21",67.82,45.14,0.00,,
"CA00120C6PK","1996-06-23",73.22,46.76,20.00,,
"CA00120C6PK","1996-06-24",75.38,46.76,20.00,,
"CA00120C6PK","1996-06-25",74.30,47.84,20.00,,
"CA00120C6PK","1996-06-26",59.72,52.70,10.00,,
"CA00120C6PK","1996-06-27",58.64,49.46,50.00,,
"CA00120C6PK","1996-06-28",53.24,46.76,50.00,,
"CA00120C6PK","1996-06-29",51.62,45.68,90.00,,
"CA00120C6PK","1996-06-30",51.08,46.76,90.00,,
"CA00120C6PK","1996-07-01",59.72,44.60,20.00,,
"CA00120C6PK","1996-07-02",65.66,39.20,30.00,,
"CA00120C6PK","1996-07-03",67.28,40.28,20.00,,
"CA00120C6PK","1996-07-04",55.94,49.46,50.00,,
"CA00120C6PK","1996-07-05",57.02,48.92,50.00,,
"CA00120C6PK","1996-07-06",64.58,45.68,20.00,,
"CA00120C6PK","1996-07-07",69.98,47.84,10.00,,
"CA00120C6PK","1996-07-08",60.80,50.54,20.00,,
"CA00120C6PK","1996-07-09",60.26,50.54,0.00,,
"CA00120C6PK","1996-07-11",68.36,49.46,10.00,,
"CA00120C6PK","1996-07-12",68.36,50.00,50.00,,
"CA00120C6PK","1996-07-13",66.74,52.70,0.00,,
"CA00120C6PK","1996-07-14",65.12,51.62,0.00,,
"CA00120C6PK","1996-07-15",62.96,48.38,0.00,,
"CA00120C6PK","1996-07-17",77.00,44.60,0.00,,
"CA00120C6PK","1996-07-18",62.42,47.84,10.00,,
"CA00120C6PK","1996-07-19",55.94,50.54,20.00,,
"CA00120C6PK","1996-07-21",65.12,51.08,0.00,,
"CA00120C6PK","1996-07-22",65.66,50.54,10.00,,
"CA00120C6PK","1996-07-23",68.90,53.24,10.00,,
"CA00120C6PK","1996-07-24",75.92,45.14,10.00,,
"CA00120C6PK","1996-07-26",78.08,47.30,10.00,,
"CA00120C6PK","1996-07-27",75.38,46.76,10.00,,
"CA00120C6PK","1996-07-28",74.30,47.30,10.00,,
"CA00120C6PK","1996-07-29",69.98,51.08,30.00,,
"CA00120C6PK","1996-07-30",63.50,50.00,10.00,,
"CA00120C6PK","1996-07-31",57.56,51.08,10.00,,
"CA00120C6PK","1996-08-01",65.12,50.54,10.00,,
"CA00120C6PK","1996-08-02",59.72,51.08,0.00,,
"CA00120C6PK","1996-08-03",61.34,51.08,0.00,,
"CA00120C6PK","1996-08-04",65.12,50.54,80.00,,
"CA00120C6PK","1996-08-05",68.90,41.90,10.00,,
"CA00120C6PK","1996-08-06",60.26,50.54,40.00,,
"CA00120C6PK","1996-08-07",59.72,50.54,40.00,,
"CA00120C6PK","1996-08-08",53.78,48.38,170.00,,
"CA00120C6PK","1996-08-09",58.10,48.38,110.00,,
"CA00120C6PK","1996-08-10",62.96,45.14,10.00,,
"CA00120C6PK","1996-08-11",63.50,50.54,140.00,,
"CA00120C6PK","1996-08-12",56.48,48.92,150.00,,
"CA00120C6PK","1996-08-13",58.64,48.92,20.00,,
"CA00120C6PK","1996-08-14",64.04,46.76,,,
"CA00120C6PK","1996-08-15",59.18,47.84,50.00,,
"CA00120C6PK","1996-08-16",61.34,50.54,50.00,,
"CA00120C6PK","1996-08-17",62.96,49.46,10.00,,
"CA00120C6PK","1996-08-18",55.40,49.46,50.00,,
"CA00120C6PK","1996-08-19",64.04,48.38,10.00,,
"CA00120C6PK","1996-08-20",55.40,51.08,10.00,,
"CA00120C6PK","1996-08-21",54.86,50.54,70.00,,
"CA00120C6PK","1996-08-22",55.94,50.54,190.00,,
"CA00120C6PK","1996-08-23",53.78,49.46,160.00,,
"CA00120C6PK","1996-08-24",61.88,47.30,0.00,,
"CA00120C6PK","1996-08-25",57.02,44.60,10.00,,
"CA00120C6PK","1996-08-26",62.42,51.08,10.00,,
"CA00120C6PK","1996-08-27",61.88,49.46,10.00,,
"CA00120C6PK","1996-08-28",63.50,47.84,0.00,,
"CA00120C6PK","1996-08-29",58.64,51.62,80.00,,
"CA00120C6PK","1996-08-30",60.80,51.08,140.00,,
"CA00120C6PK","1996-08-31",62.42,52.16,10.00,,
"CA00120C6PK","1996-09-01",55.94,47.84,10.00,,
"CA00120C6PK","1996-09-02",58.10,47.84,50.00,,
"CA00120C6PK","1996-09-03",62.42,48.92,0.00,,
"CA00120C6PK","1996-09-04",63.50,42.44,0.00,,
"CA00120C6PK","1996-09-06",56.48,41.90,20.00,,
"CA00120C6PK","1996-09-07",58.64,35.42,10.00,,
"CA00120C6PK","1996-09-08",54.86,37.58,20.00,,
"CA00120C6PK","1996-09-09",54.32,47.30,30.00,,
"CA00120C6PK","1996-09-10",51.62,47.30,190.00,,
"CA00120C6PK","1996-09-11",56.48,47.84,30.00,,
"CA00120C6PK","1996-09-12",54.86,48.38,140.00,,
"CA00120C6PK","1996-09-13",53.78,48.38,50.00,,
"CA00120C6PK","1996-09-14",54.32,47.30,30.00,,
"CA00120C6PK","1996-09-15",52.16,43.52,10.00,,
"CA00120C6PK","1996-09-16",58.64,42.98,10.00,,
"CA00120C6PK","1996-09-17",49.46,40.28,180.00,,
"CA00120C6PK","1996-09-18",53.24,44.06,150.00,,
"CA00120C6PK","1996-09-19",47.84,41.90,80.00,,
"CA00120C6PK","1996-09-20",45.14,40.28,20.00,,
"CA00120C6PK","1996-09-21",50.54,39.20,10.00,,
"CA00120C6PK","1996-09-22",46.76,39.20,20.00,,
"CA00120C6PK","1996-09-24",49.46,44.06,50.00,,
"CA00120C6PK","1996-09-25",49.46,45.14,280.00,,
"CA00120C6PK","1996-09-26",54.86,45.68,260.00,,
"CA00120C6PK","1996-09-27",50.00,40.82,10.00,,
"CA00120C6PK","1996-09-28",48.92,33.26,0.00,,
"CA00120C6PK","1996-09-29",45.14,30.02,10.00,,
"CA00120C6PK","1996-09-30",44.60,28.94,10.00,,
"CA00120C6PK","1996-10-02",40.28,34.34,50.00,,
"CA00120C6PK","1996-10-03",50.00,,180.00,,
"CA00120C6PK","1996-10-04",46.76,42.44,70.00,,
"CA00120C6PK","1996-10-05",50.00,42.44,30.00,,
"CA00120C6PK","1996-10-06",48.92,44.06,270.00,,
"CA00120C6PK","1996-10-07",50.00,45.14,100.00,,
"CA00120C6PK","1996-10-08",50.00,46.22,20.00,,
"CA00120C6PK","1996-10-09",51.08,46.76,360.00,,
"CA00120C6PK","1996-10-12",41.90,34.88,40.00,,
"CA00120C6PK","1996-10-13",44.60,39.74,120.00,,
"CA00120C6PK","1996-10-14",42.44,37.58,30.00,,
"CA00120C6PK","1996-10-15",41.36,31.64,40.00,,
"CA00120C6PK","1996-10-16",39.20,33.26,40.00,,
"CA00120C6PK","1996-10-17",39.20,31.10,10.00,,
"CA00120C6PK","1996-10-18",42.98,,0.00,,
"CA00120C6PK","1996-10-19",,,0.00,,
"CA00120C6PK","1996-10-20",38.12,32.18,,,
"CA00120C6PK","1996-10-21",,32.18,,,
"CA00120C6PK","1996-10-22",34.88,32.72,0.00,,
"CA00120C6PK","1996-10-23",35.42,32.72,130.00,,
"CA00120C6PK","1996-10-24",37.04,32.72,0.00,,
"CA00120C6PK","1996-10-26",40.28,34.88,80.00,,
"CA00120C6PK","1996-10-27",41.90,37.04,270.00,,
"CA00120C6PK","1996-10-28",41.36,25.70,70.00,,
"CA00120C6PK","1996-10-29",32.18,23.00,0.00,,
"CA00120C6PK","1996-10-30",34.88,24.08,10.00,,
"CA00120C6PK","1996-10-31",34.88,26.24,0.00,,
"CA00120C6PK","1996-11-01",39.74,33.80,110.00,,
"CA00120C6PK","1996-11-02",38.12,32.18,10.00,,
"CA00120C6PK","1996-11-03",32.72,28.94,0.00,,
"CA00120C6PK","1996-11-04",35.96,30.56,10.00,,
"CA00120C6PK","1996-11-05",38.12,34.34,120.00,,
"CA00120C6PK","1996-11-06",38.12,32.18,30.00,,
"CA00120C6PK","1996-11-07",34.88,32.18,110.00,,
"CA00120C6PK","1996-11-08",33.26,32.18,60.00,,
"CA00120C6PK","1996-11-09",33.80,28.40,20.00,,
"CA00120C6PK","1996-11-10",30.02,26.24,30.00,,
"CA00120C6PK","1996-11-11",29.48,25.70,40.00,,
"CA00120C6PK","1996-11-12",34.34,28.94,30.00,,
"CA00120C6PK","1996-11-13",31.64,29.48,10.00,,
"CA00120C6PK","1996-11-14",32.72,26.78,10.00,,
"CA00120C6PK","1996-11-15",25.16,14.90,0.00,,
"CA00120C6PK","1996-11-17",28.94,19.22,20.00,,
"CA00120C6PK","1996-11-18",,19.76,20.00,,
"CA00120C6PK","1996-11-19",,13.82,0.00,,
"CA00120C6PK","1996-11-20",16.52,5.18,0.00,,
"CA00120C6PK","1996-11-21",8.96,1.40,20.00,,
"CA00120C6PK","1996-11-22",9.50,1.94,30.00,,
"CA00120C6PK","1996-11-23",11.12,-2.38,30.00,,
"CA00120C6PK","1996-11-24",17.06,10.58,30.00,,
"CA00120C6PK","1996-11-25",16.52,14.90,150.00,,